DELTA 1 DEB, 5971

Orbit data source: Space-Track

DELTA 1 DEB, 5971 is space debris in SSO originally from a launch on Thu, 26 Jan 1967 UTC launched from the Air Force Western Test Range (AFWTR). Debris objects in space refer to the collection of defunct objects orbiting the Earth. Examples of debris include non-operational satellites, rocket bodies, and fragments generated from explosions, collisions, or faulty payload assembly.

Loading next visibility...
Identifier
5971, 1967-006E
Orbit
SSO
Country
Flag of USUS
Related business
Manufacturer
Unknown
Mission
Spacecraft
Bus & Motor
Unknown
Mass
Unknown
Launch date (UTC)
1967-01-26 (59 years ago)
Launch vehicle
Unknown
Launch site
Air Force Western Test Range (AFWTR)
Object type
Payload
Rocket body
Debris
Shape & HBR
Unknown shape, 0.1 m
Radar Cross Section
Small (<0.1 m²)

Expand to show TLE details & history
Last TLE update: 14 hours ago

TLE from 14 hours ago
0 DELTA 1 DEB
1 05971U 67006E   26036.76885983 -.00000023  00000-0  12498-3 0  9995
2 05971 101.9386 335.2343 0112593 231.2168 157.4458 12.73479981744368
Epoch: 2026-02-05T18:27Z
TLE epoch observation values (Epoch: 2026-02-05T18:27:09.489Z)
Latitude
28.50539°
Longitude
-84.03271°
Altitude
1,451.74 km
Speed
7.101 km/s
True Right ascension
21h 54m 41s
True Declination
28° 22' 27"
Sunlit
Object was in daylight at epoch
Visualization orbit readout
Latitude
Unknown
Longitude
Unknown
Altitude
Unknown
Speed
Unknown
Apparent Right ascension
Unknown
Apparent Declination
Unknown
Sunlit
N/A
Visualization observer readout
Local Sidereal Time
10:26:21
Azimuth
Unknown
Elevation
Unknown
Doppler factor
Unknown
Orbital elements
Apogee altitude
1,452.509 km
Perigee altitude
1,278.137 km
Semi-major axis
7,743.46 km
Eccentricity
0.01126
Inclination
101.9386°
RAAN
335.2343°
Arg. of periapsis
231.2168°
True anomaly
157.93431°
Mean anomaly
157.4458°
Eccentric anomaly
157.69069°
Mean motion
3.18523 °/min
Orbital period
113.02 mins
BSTAR
0.00012498
Loading maneuver chart data...
Computing Atmospheric mass density...
Loading historical data...
Loading historical data...
Loading historical data...
Loading historical data...
Loading historical data...
Loading historical data...
Loading historical data...
Other satellites on launch #6 in the year 1967 (1967-01-26 UTC)

Documentation

Showing up to 5 results
|